{"data":{"norad_id":87426,"intl_designator":"","name":"UNKNOWN","alt_names":[],"object_type":"UNKNOWN","status":"UNKNOWN","operator":null,"country":null,"launch_date":null,"launch_site_code":null,"launch_vehicle":null,"mission":null,"orbit_class":"UNKNOWN","rcs_meters":null,"size_class":null,"mass_kg":null,"dimensions":null,"purposes":[],"wikipedia_slug":null,"has_3d_model":false,"image_url":null,"decayed_at":null,"tle_current":{"epoch":"2026-05-23T07:58:41.854368Z","epoch_age_seconds":209392,"freshness":"STALE","line1":"1 87426U          26143.33242887  .00003059  00000+0  11632-2 0  9991","line2":"2 87426  65.7825 255.8019 0065134 219.5964 174.6984 14.31213322645700","mean_motion":14.31213322,"eccentricity":0.0065134,"inclination_deg":65.7825,"raan_deg":255.8019,"arg_perigee_deg":219.5964,"mean_anomaly_deg":174.6984,"bstar":0.0011632,"rev_number":64570,"period_min":100.61393209977,"perigee_km":741.00422686166,"apogee_km":834.35186631053,"semimajor_km":7165.8150465861,"source":"CELESTRAK","updated_at":"2026-05-25T13:38:11.670076Z"}}}